Location: Luz Observatory
(34.5000°N, 117.2833°W)
Time: 21:06:41
(UTC-08:00)

Daily predictions for brighter satellites

Satellite Brightness Start Highest point End
(mag) Time Altitude Azimuth Time Altitude Azimuth Time Altitude Azimuth
ASTRO E2 3.7 17:57:22 10° W 18:01:12 43° S 18:05:02 10° ESE
ATLAS 2A CENTAUR R/B 2.6 17:59:57 10° SW 18:01:35 18° SSE 18:04:33 10° ESE
Cosmos 1818 3.6 18:00:54 10° SSW 18:06:16 67° ESE 18:11:41 10° NE
Cosmos 1484 Rocket 3.6 18:02:42 10° S 18:06:38 60° W 18:10:32 10° NNW
SJ-6B 3.7 18:04:34 10° SE 18:08:05 29° ENE 18:11:32 10° NNE
ERBS 3.5 18:06:21 10° NW 18:09:42 47° SW 18:13:02 10° SSE
BREEZE-M DEB (TANK) 4.3 18:08:59 10° NNE 18:09:49 11° NE 18:10:50 10° NE
Meteor 1-18 Rocket 4.2 18:06:36 10° N 18:12:09 68° E 18:17:44 10° SSE
SL-16 R/B 2.3 18:09:42 10° NNW 18:15:19 58° ENE 18:20:52 10° SE
Resurs 01 Rocket 2.9 18:12:50 10° ESE 18:15:59 20° ENE 18:19:08 10° NNE
TSX-5 3.5 18:13:55 10° S 18:17:05 47° ESE 18:20:08 10° NE
Cosmos 1340 3.8 18:14:28 10° NNE 18:17:29 22° ENE 18:20:29 10° SE
Cosmos 1992 Rocket 4.3 18:14:06 10° NNW 18:19:19 72° WSW 18:24:30 10° S
Cosmos 407 Rocket 3.6 18:14:14 10° SSW 18:19:26 87° WNW 18:24:45 10° NNE
Nadezhda 1 Rocket 3.9 18:14:11 10° N 18:20:17 85° E 18:26:21 10° S
DNEPR-1 R/B 3.8 18:16:52 10° NNW 18:20:56 45° ENE 18:25:05 10° SE
Cosmos 676 Rocket 4.0 18:16:34 10° S 18:21:40 66° ESE 18:26:50 10° NNE
Cosmos 1238 Rocket 3.6 18:21:12 10° NE 18:23:15 17° ENE 18:24:54 12° ESE
Gbstr 26 Del rocket 3.1 18:19:47 10° SSW 18:23:31 42° SE 18:26:33 13° ENE
Tiangong 2 2.1 18:21:53 10° NW 18:24:40 30° NNE 18:26:33 16° ENE
DELTA 2 R/B (1) 4.0 18:19:18 10° WNW 18:24:48 53° N 18:29:26 14° E
Meteor 1-20 Rocket 4.5 18:19:00 10° S 18:24:48 82° W 18:30:41 10° N
BREEZE-M DEB (TANK) 3.7 18:20:46 10° NW 18:28:41 48° NNE 18:30:57 17° E
Cosmos 1300 Rocket 3.9 18:27:22 10° SSE 18:31:29 42° E 18:35:40 10° NNE
Cosmos 1536 3.9 18:29:28 10° SE 18:32:38 23° E 18:35:48 10° NE
Cosmos 2322 Rocket 2.2 18:27:32 10° NNW 18:33:10 86° ENE 18:38:46 10° SSE
Cosmos 44 Rocket 4.4 18:29:27 10° NW 18:33:56 44° WSW 18:38:21 10° S
Cosmos 2181 Rocket 4.3 18:28:42 10° N 18:34:40 46° E 18:40:42 10° SSE
Resurs 1-3 4.5 18:34:40 10° SE 18:38:25 28° ENE 18:42:10 10° NNE
Meteor 1-13 Rocket 4.4 18:35:41 10° N 18:41:03 48° ENE 18:46:28 10° SSE
Okean 1 3.3 18:37:48 10° N 18:41:53 89° WSW 18:45:56 10° S
Cosmos 1140 Rocket 3.4 18:39:21 10° S 18:44:23 63° ESE 18:49:29 10° NNE
ATLAS CENTAUR R/B 3.4 18:41:03 10° S 18:45:17 19° SE 18:45:59 19° ESE
FENGYUN 3A 3.7 18:40:19 10° SSE 18:45:35 57° ENE 18:50:53 10° N
Cosmos 1461 2.7 18:41:42 10° NNW 18:45:43 75° ENE 18:49:51 10° SSE
Cosmos 2322 4.3 18:40:45 10° N 18:45:58 35° ENE 18:49:34 18° ESE
H-2A R/B 3.3 18:45:20 19° SE 18:47:22 33° ENE 18:50:43 10° N
Cosmos 2074 Rocket 4.4 18:43:56 10° SSE 18:49:34 37° E 18:55:14 10° NNE
Cosmos 1709 Rocket 4.0 18:43:58 10° S 18:50:14 86° W 18:56:27 10° N
Cosmos 2184 Rocket 4.5 18:44:39 10° SSE 18:50:21 36° E 18:56:00 10° NNE
Cosmos 44 4.3 18:49:17 10° NW 18:53:25 42° WSW 18:57:26 10° S
SL-19 R/B 4.4 18:48:22 10° SSE 18:53:49 57° ENE 18:59:34 10° N
Spot 2 Rocket 3.6 18:49:33 10° SSE 18:54:26 52° ENE 18:59:21 10° N
Cosmos 614 Rocket 3.9 18:51:36 10° S 18:56:36 61° ESE 19:01:36 10° NNE
Helios 1A 4.1 18:58:08 26° NE 18:58:08 26° NE 19:00:52 10° NNE
COSMOS 2428 3.8 18:54:26 10° N 18:58:56 24° ENE 18:59:03 23° ENE
Meteor 2-4 Rocket 3.9 18:55:01 10° N 19:00:16 42° ENE 19:04:57 12° SSE
HJ-1C 3.3 18:59:00 10° S 19:02:22 85° W 19:05:45 10° NNW
Okean 1 Rocket 3.0 18:58:01 10° S 19:02:29 75° E 19:06:58 10° N
Cosmos 1850 Rocket 4.0 18:58:18 10° S 19:03:29 59° ESE 19:08:42 10° NNE
GPS 2-04 Rocket1 3.4 19:00:20 10° SW 19:04:24 42° SSE 19:05:18 37° SE
Abrixas rocket 3.4 19:03:29 10° SSW 19:05:50 30° SSE 19:05:50 30° SSE
Meteor 1-11 Rocket 3.9 19:06:36 10° SSW 19:12:19 79° W 19:18:14 10° N
Cosmos 2219 3.1 19:13:04 10° S 19:18:45 66° ESE 19:23:09 17° NNE
Cosmos 1633 4.3 19:15:50 10° SSW 19:19:12 34° W 19:22:35 10° NNW
Helios 1B rocket 2.3 19:20:32 59° NE 19:21:09 70° ESE 19:25:15 10° S
Okean 1-7 Rocket 3.4 19:20:37 10° N 19:25:09 73° E 19:25:47 62° SE
Cosmos 2360 Rocket 2.1 19:19:38 10° NNW 19:25:19 89° ENE 19:28:56 23° SSE
Cosmos 2219 Rocket 3.9 19:23:53 10° N 19:25:54 18° NNE 19:25:54 18° NNE
OAO 3 Copernicus 4.2 19:25:10 10° W 19:30:16 79° SSW 19:30:52 67° SE
Cosmos 1025 Rocket 4.2 19:30:09 10° N 19:32:29 30° N 19:32:29 30° N
ALOS 3.6 19:30:15 10° SSW 19:34:36 39° W 19:38:59 10° NNW
BREEZE-M DEB (TANK) 4.1 19:36:14 10° WSW 19:39:12 29° WNW 19:39:12 29° WNW
Meteor 2-13 Rocket 4.3 19:38:01 10° S 19:45:02 57° NE 19:50:02 10° NNE
Resurs 01 Rocket 3.4 19:48:19 10° SSW 19:52:13 31° W 19:56:08 10° NW
Cosmos 2333 Rocket 4.1 19:49:21 10° N 19:51:05 18° NNE 19:51:05 18° NNE
BREEZE-M DEB (TANK) 4.5 19:52:55 10° NW 19:56:45 52° NNE 19:56:45 52° NNE
H-2A R/B (2) 3.9 19:55:12 10° SW 19:55:29 12° SW 19:55:29 12° SW
DELTA 2 R/B (1) 4.2 20:05:52 10° WNW 20:10:13 54° W 20:10:13 54° W
COSMOS 2428 4.4 20:38:01 10° NW 20:41:08 30° WNW 20:41:08 30° WNW
